AAL810 KSAN-KPSP

Flight info

Callsign AAL810
Flight time 0h 28m
Altitude 21000
Route BRDR7 JLI V208 TRM
Aircraft B737/M-V/N

Departure

Time 2026-04-22 04:19
Airport San Diego International Airport (KSAN)

Arrival

Time 2026-04-22 04:47
Airport Palm Springs International Airport (KPSP)
Time Latitude Longitude Altitude Speed Heading
2026-04-22 03:50 32.73337 -117.20346 20 ft 0 kts 265°
2026-04-22 04:02 32.73338 -117.20333 19 ft 3 kts 265°
2026-04-22 04:02 32.73340 -117.20302 19 ft 3 kts 265°
2026-04-22 04:02 32.73341 -117.20292 20 ft 0 kts 265°
2026-04-22 04:04 32.73347 -117.20303 19 ft 3 kts 329°
2026-04-22 04:04 32.73375 -117.20294 20 ft 3 kts 25°
2026-04-22 04:05 32.73396 -117.20283 19 ft 2 kts 25°
2026-04-22 04:05 32.73409 -117.20276 19 ft 1 kts 19°
2026-04-22 04:05 32.73417 -117.20273 19 ft 0 kts 19°
2026-04-22 04:05 32.73418 -117.20273 19 ft 0 kts 19°
2026-04-22 04:07 32.73419 -117.20272 19 ft 1 kts 19°
2026-04-22 04:07 32.73465 -117.20256 20 ft 10 kts 16°
2026-04-22 04:07 32.73528 -117.20223 20 ft 9 kts 48°
2026-04-22 04:07 32.73540 -117.20152 20 ft 8 kts 100°
2026-04-22 04:08 32.73526 -117.20090 20 ft 7 kts 107°
2026-04-22 04:08 32.73512 -117.20035 20 ft 6 kts 106°
2026-04-22 04:08 32.73501 -117.19988 20 ft 5 kts 106°
2026-04-22 04:08 32.73492 -117.19949 20 ft 4 kts 106°
2026-04-22 04:09 32.73484 -117.19918 20 ft 3 kts 106°
2026-04-22 04:09 32.73478 -117.19894 20 ft 2 kts 106°
2026-04-22 04:09 32.73474 -117.19876 20 ft 3 kts 106°
2026-04-22 04:09 32.73463 -117.19830 20 ft 8 kts 106°
2026-04-22 04:10 32.73442 -117.19743 21 ft 13 kts 106°
2026-04-22 04:10 32.73412 -117.19621 21 ft 16 kts 106°
2026-04-22 04:10 32.73382 -117.19499 23 ft 13 kts 106°
2026-04-22 04:10 32.73356 -117.19393 23 ft 12 kts 106°
2026-04-22 04:11 32.73332 -117.19295 23 ft 11 kts 106°
2026-04-22 04:11 32.73310 -117.19203 22 ft 11 kts 106°
2026-04-22 04:11 32.73289 -117.19118 22 ft 10 kts 106°
2026-04-22 04:11 32.73269 -117.19035 22 ft 10 kts 105°
2026-04-22 04:12 32.73251 -117.18958 21 ft 9 kts 105°
2026-04-22 04:12 32.73234 -117.18885 21 ft 8 kts 105°
2026-04-22 04:12 32.73218 -117.18818 21 ft 8 kts 106°
2026-04-22 04:12 32.73203 -117.18756 20 ft 7 kts 106°
2026-04-22 04:13 32.73188 -117.18698 20 ft 7 kts 106°
2026-04-22 04:13 32.73175 -117.18645 20 ft 6 kts 106°
2026-04-22 04:13 32.73163 -117.18596 20 ft 5 kts 106°
2026-04-22 04:13 32.73153 -117.18555 20 ft 4 kts 106°
2026-04-22 04:14 32.73145 -117.18521 20 ft 3 kts 106°
2026-04-22 04:14 32.73138 -117.18494 20 ft 2 kts 106°
2026-04-22 04:14 32.73134 -117.18476 20 ft 1 kts 106°
2026-04-22 04:14 32.73131 -117.18465 20 ft 0 kts 106°
2026-04-22 04:15 32.73130 -117.18462 20 ft 0 kts 106°
2026-04-22 04:15 32.73127 -117.18448 20 ft 7 kts 106°
2026-04-22 04:15 32.73089 -117.18288 20 ft 25 kts 105°
2026-04-22 04:15 32.73042 -117.18092 20 ft 23 kts 106°
2026-04-22 04:16 32.72998 -117.17910 22 ft 21 kts 106°
2026-04-22 04:16 32.72964 -117.17646 25 ft 1 kts 63°
2026-04-22 04:16 32.72951 -117.17711 24 ft 4 kts 94°
2026-04-22 04:17 32.72964 -117.17649 25 ft 12 kts 62°
2026-04-22 04:18 32.73027 -117.17638 26 ft 10 kts 306°
2026-04-22 04:18 32.73040 -117.17673 26 ft 0 kts 287°
2026-04-22 04:18 32.73040 -117.17674 26 ft 1 kts 287°
2026-04-22 04:18 32.73087 -117.17870 23 ft 61 kts 286°
2026-04-22 04:19 32.73286 -117.18684 22 ft 139 kts 285°
2026-04-22 04:19 32.73582 -117.19930 494 ft 160 kts 286°
2026-04-22 04:19 32.73900 -117.21184 1130 ft 177 kts 289°
2026-04-22 04:19 32.74327 -117.22700 1639 ft 200 kts 289°
2026-04-22 04:20 32.74770 -117.24294 2306 ft 210 kts 289°
2026-04-22 04:20 32.75239 -117.25993 2968 ft 227 kts 289°
2026-04-22 04:20 32.75742 -117.27825 3677 ft 243 kts 289°
2026-04-22 04:20 32.76295 -117.29774 4458 ft 257 kts 289°
2026-04-22 04:21 32.76823 -117.31741 5624 ft 252 kts 277°
2026-04-22 04:21 32.76648 -117.33757 6553 ft 256 kts 249°
2026-04-22 04:21 32.75609 -117.35487 7464 ft 265 kts 222°
2026-04-22 04:21 32.73969 -117.36425 8433 ft 273 kts 196°
2026-04-22 04:22 32.72043 -117.36378 9285 ft 288 kts 170°
2026-04-22 04:22 32.70209 -117.35281 10020 ft 307 kts 145°
2026-04-22 04:22 32.68753 -117.33328 10542 ft 328 kts 124°
2026-04-22 04:22 32.67936 -117.30730 11077 ft 348 kts 101°
2026-04-22 04:23 32.67989 -117.27844 11605 ft 361 kts 78°
2026-04-22 04:23 32.68435 -117.24888 12136 ft 371 kts 92°
2026-04-22 04:23 32.68487 -117.21790 12656 ft 381 kts 78°
2026-04-22 04:23 32.69440 -117.18851 13180 ft 389 kts 57°
2026-04-22 04:24 32.71171 -117.16434 13673 ft 382 kts 38°
2026-04-22 04:24 32.73059 -117.14197 14187 ft 392 kts 44°
2026-04-22 04:24 32.74917 -117.11752 14659 ft 408 kts 46°
2026-04-22 04:24 32.76796 -117.09221 14959 ft 415 kts 46°
2026-04-22 04:25 32.78746 -117.06590 14996 ft 435 kts 46°
2026-04-22 04:25 32.80796 -117.03822 15036 ft 459 kts 47°
2026-04-22 04:25 32.82906 -117.00962 14987 ft 461 kts 47°
2026-04-22 04:25 32.85022 -116.98097 14981 ft 458 kts 46°
2026-04-22 04:26 32.87124 -116.95258 14985 ft 457 kts 46°
2026-04-22 04:26 32.89221 -116.92418 14984 ft 456 kts 47°
2026-04-22 04:26 32.91317 -116.89576 14984 ft 457 kts 47°
2026-04-22 04:26 32.93397 -116.86752 14981 ft 456 kts 47°
2026-04-22 04:27 32.95478 -116.83924 14991 ft 456 kts 47°
2026-04-22 04:27 32.97571 -116.81080 14980 ft 455 kts 46°
2026-04-22 04:27 32.99652 -116.78250 14970 ft 455 kts 47°
2026-04-22 04:27 33.01746 -116.75394 14970 ft 456 kts 47°
2026-04-22 04:28 33.03814 -116.72577 14967 ft 455 kts 46°
2026-04-22 04:28 33.05902 -116.69730 14971 ft 456 kts 47°
2026-04-22 04:28 33.07995 -116.66878 14967 ft 455 kts 47°
2026-04-22 04:28 33.10071 -116.64043 14953 ft 455 kts 47°
2026-04-22 04:29 33.12154 -116.61197 14943 ft 455 kts 47°
2026-04-22 04:29 33.14281 -116.58432 14923 ft 451 kts 39°
2026-04-22 04:29 33.16791 -116.56220 14961 ft 451 kts 34°
2026-04-22 04:29 33.19340 -116.54015 14953 ft 449 kts 33°
2026-04-22 04:30 33.21874 -116.51814 14963 ft 451 kts 33°
2026-04-22 04:30 33.24413 -116.49606 14970 ft 452 kts 33°
2026-04-22 04:30 33.26923 -116.47419 14956 ft 450 kts 33°
2026-04-22 04:30 33.29468 -116.45208 14953 ft 450 kts 33°
2026-04-22 04:31 33.32008 -116.42997 14940 ft 449 kts 33°
2026-04-22 04:31 33.34513 -116.40808 14930 ft 449 kts 33°
2026-04-22 04:31 33.37053 -116.38591 14931 ft 449 kts 33°
2026-04-22 04:31 33.39555 -116.36404 14916 ft 448 kts 33°
2026-04-22 04:32 33.42111 -116.34174 14895 ft 450 kts 34°
2026-04-22 04:32 33.44634 -116.31964 14899 ft 450 kts 34°
2026-04-22 04:32 33.47162 -116.29752 14902 ft 447 kts 34°
2026-04-22 04:32 33.49575 -116.27635 14876 ft 420 kts 34°
2026-04-22 04:33 33.51877 -116.25619 14853 ft 395 kts 33°
2026-04-22 04:33 33.54023 -116.23739 14861 ft 372 kts 33°
2026-04-22 04:33 33.56200 -116.22288 14843 ft 343 kts 16°
2026-04-22 04:33 33.58319 -116.21170 14861 ft 333 kts 21°
2026-04-22 04:34 33.60456 -116.19996 14462 ft 339 kts 21°
2026-04-22 04:34 33.62590 -116.18831 14027 ft 337 kts 21°
2026-04-22 04:34 33.64726 -116.17652 13528 ft 336 kts 21°
2026-04-22 04:34 33.66862 -116.16482 13043 ft 334 kts 21°
2026-04-22 04:35 33.68965 -116.15338 12550 ft 332 kts 21°
2026-04-22 04:35 33.71121 -116.14407 12069 ft 326 kts 11°
2026-04-22 04:35 33.73266 -116.13730 11482 ft 320 kts 11°
2026-04-22 04:35 33.75397 -116.13068 10853 ft 312 kts 11°
2026-04-22 04:36 33.77484 -116.12450 10260 ft 305 kts 11°
2026-04-22 04:36 33.79516 -116.11750 9674 ft 305 kts 24°
2026-04-22 04:36 33.81197 -116.10249 9128 ft 307 kts 50°
2026-04-22 04:36 33.82206 -116.08020 8582 ft 303 kts 76°
2026-04-22 04:37 33.82334 -116.05546 8053 ft 300 kts 102°
2026-04-22 04:37 33.81564 -116.03231 7518 ft 297 kts 129°
2026-04-22 04:37 33.80079 -116.01640 7241 ft 287 kts 155°
2026-04-22 04:37 33.78190 -116.01006 6952 ft 277 kts 184°
2026-04-22 04:38 33.76339 -116.01426 6907 ft 271 kts 202°
2026-04-22 04:38 33.74755 -116.02605 6892 ft 266 kts 230°
2026-04-22 04:38 33.73819 -116.04492 6713 ft 265 kts 250°
2026-04-22 04:38 33.73161 -116.06582 6350 ft 265 kts 251°
2026-04-22 04:39 33.72521 -116.08624 5943 ft 263 kts 251°
2026-04-22 04:39 33.71881 -116.10686 5544 ft 261 kts 251°
2026-04-22 04:39 33.71257 -116.12721 5147 ft 260 kts 251°
2026-04-22 04:39 33.70637 -116.14738 4748 ft 259 kts 251°
2026-04-22 04:40 33.70026 -116.16772 4349 ft 257 kts 254°
2026-04-22 04:40 33.69691 -116.18858 4033 ft 252 kts 261°
2026-04-22 04:40 33.69410 -116.20863 3994 ft 237 kts 261°
2026-04-22 04:40 33.69143 -116.22760 3976 ft 222 kts 261°
2026-04-22 04:41 33.68893 -116.24511 3971 ft 208 kts 261°
2026-04-22 04:41 33.68928 -116.26195 3999 ft 197 kts 280°
2026-04-22 04:41 33.69192 -116.27808 4016 ft 198 kts 281°
2026-04-22 04:41 33.69456 -116.29397 4017 ft 191 kts 281°
2026-04-22 04:42 33.69814 -116.30942 4028 ft 195 kts 296°
2026-04-22 04:42 33.70465 -116.32369 4039 ft 194 kts 298°
2026-04-22 04:42 33.71125 -116.33780 4045 ft 195 kts 298°
2026-04-22 04:42 33.71785 -116.35187 4035 ft 193 kts 298°
2026-04-22 04:43 33.72452 -116.36603 4037 ft 195 kts 298°
2026-04-22 04:43 33.73111 -116.38019 4035 ft 194 kts 298°
2026-04-22 04:43 33.73751 -116.39392 3994 ft 178 kts 298°
2026-04-22 04:43 33.74319 -116.40599 3923 ft 153 kts 298°
2026-04-22 04:44 33.74828 -116.41673 3667 ft 146 kts 298°
2026-04-22 04:44 33.75309 -116.42699 3277 ft 138 kts 298°
2026-04-22 04:44 33.75791 -116.43679 2772 ft 138 kts 306°
2026-04-22 04:44 33.76371 -116.44603 2245 ft 139 kts 306°
2026-04-22 04:45 33.76962 -116.45501 1706 ft 140 kts 308°
2026-04-22 04:45 33.77631 -116.46316 1470 ft 138 kts 321°
2026-04-22 04:45 33.78445 -116.46963 1315 ft 144 kts 328°
2026-04-22 04:45 33.79274 -116.47597 1139 ft 141 kts 323°
2026-04-22 04:46 33.80100 -116.48229 859 ft 138 kts 323°
2026-04-22 04:46 33.80880 -116.48911 796 ft 134 kts 323°
2026-04-22 04:46 33.81627 -116.49558 648 ft 134 kts 321°
2026-04-22 04:46 33.82386 -116.50249 502 ft 135 kts 322°
2026-04-22 04:47 33.83071 -116.50867 461 ft 106 kts 323°
2026-04-22 04:47 33.83581 -116.51314 481 ft 78 kts 324°
2026-04-22 04:47 33.83921 -116.51615 499 ft 30 kts 325°
2026-04-22 04:47 33.83986 -116.51731 504 ft 16 kts 243°
2026-04-22 04:48 33.83895 -116.51756 502 ft 12 kts 143°
2026-04-22 04:48 33.83865 -116.51730 500 ft 6 kts 144°
2026-04-22 04:48 33.83823 -116.51693 498 ft 8 kts 144°
2026-04-22 04:48 33.83767 -116.51646 495 ft 10 kts 148°
2026-04-22 04:49 33.83696 -116.51608 492 ft 11 kts 158°
2026-04-22 04:49 33.83619 -116.51561 490 ft 12 kts 144°
2026-04-22 04:49 33.83543 -116.51493 487 ft 14 kts 144°
2026-04-22 04:49 33.83457 -116.51417 482 ft 16 kts 144°
2026-04-22 04:50 33.83358 -116.51329 477 ft 18 kts 143°